Torna al catalogo

BLOCK DM-SL R/B

AttivoGTO
NORAD 39021·ROCKET BODY· XX

Lanciato Dec 3, 2012 da Sea Launch Platform

Loading…

TLE

In scadenzaSource: Space-Track

Epoca: Sep 14, 2026, 05:52 UTC

1 39021U 12069B   26257.24506707 -.00000185  00000-0  00000-0 0  9991
2 39021   0.8134  15.5781 6869423 150.8510 231.1774  2.21902968111746

Traccia BLOCK DM-SL R/B in tempo reale con AllMySat

Download on the App Store